Inquirer Daily News

Weather

Get conditions and forecasts for any City, State, ZIP code or Country:  
Trenton, NJ
on Saturday, December 1, 2012

Saturday
Previous Day Next Day
Daily Summary
 ActualAverageRecord
Temperature
Mean Temperature °F 40°F  
Max Temperature 45°F 48°F 71°F (2006)
Min Temperature 38°F 33°F 11°F (1936)
Degree Days
Heating Degree Days 23 25  
Month to date heating degree days 23 25  
Since 1 July heating degree days 1030 1001  
Cooling Degree Days 0 0  
Month to date cooling degree days 0 0  
Year to date cooling degree days 1234 965  
Moisture
Dew Point 35°F   
Average Humidity 87    
Maximum Humidity 100    
Minimum Humidity 73    
Precipitation
Precipitation 0.00 in 0.15 in 1.56 in (2010)
Month to date precipitation 0.00 0.15  
Year to date precipitation 33.23 42.89  
Wind
Wind Speed 7 mph   
Max Wind Speed 13 mph   
Max Gust Speed 17 mph   
Visibility 6 miles   
Events Fog   

Key: T is trace of precipitation, MM is missing value
Source: NWS Daily Summary
Time(EST)TemperatureDew PointHumidity Pressure Visibility Wind DirectionWind SpeedGust SpeedPrecipitationEvents Conditions
12:53 AM 39.9°F 34.0°F 79% 30.40 in 10.0 miles ENE 10.4 mph - N/A   Mostly Cloudy
1:53 AM 39.0°F 33.1°F 79% 30.40 in 10.0 miles ENE 9.2 mph - N/A   Scattered Clouds
2:09 AM 39.2°F 33.8°F 81% 30.42 in 10.0 miles ENE 6.9 mph - N/A   Mostly Cloudy
2:39 AM 39.2°F 32.0°F 75% 30.42 in 10.0 miles ENE 8.1 mph - N/A   Overcast
2:53 AM 37.9°F 32.0°F 79% 30.40 in 10.0 miles ENE 6.9 mph - N/A   Overcast
3:20 AM 37.4°F 32.0°F 81% 30.41 in 10.0 miles ENE 6.9 mph - N/A   Overcast
3:53 AM 37.9°F 32.0°F 79% 30.39 in 10.0 miles ENE 8.1 mph - N/A   Overcast
4:53 AM 37.9°F 32.0°F 79% 30.40 in 10.0 miles ENE 9.2 mph - N/A   Overcast
5:53 AM 37.9°F 32.0°F 79% 30.41 in 10.0 miles ENE 6.9 mph - N/A   Overcast
7:53 AM 37.9°F 32.0°F 79% 30.44 in 10.0 miles ENE 6.9 mph - N/A   Overcast
8:53 AM 39.0°F 32.0°F 76% 30.47 in 9.0 miles ENE 8.1 mph - N/A   Overcast
9:53 AM 39.0°F 32.0°F 76% 30.48 in 9.0 miles NE 8.1 mph - N/A   Overcast
10:53 AM 41.0°F 34.0°F 76% 30.46 in 9.0 miles East 10.4 mph - N/A   Overcast
11:53 AM 43.0°F 35.1°F 74% 30.43 in 9.0 miles East 5.8 mph - N/A   Overcast
12:53 PM 45.0°F 37.0°F 74% 30.40 in 9.0 miles ESE 10.4 mph - N/A   Overcast
1:53 PM 45.0°F 37.0°F 74% 30.40 in 9.0 miles East 11.5 mph - N/A   Overcast
2:53 PM 44.1°F 37.0°F 76% 30.40 in 9.0 miles ENE 8.1 mph - N/A   Overcast
3:53 PM 44.1°F 37.0°F 76% 30.41 in 8.0 miles East 9.2 mph - N/A   Overcast
4:53 PM 42.1°F 35.1°F 76% 30.42 in 8.0 miles ENE 8.1 mph - N/A   Overcast
6:53 PM 41.0°F 36.0°F 82% 30.45 in 6.0 miles ENE 5.8 mph - N/A   Haze
7:53 PM 39.9°F 37.0°F 89% 30.44 in 4.0 miles East 3.5 mph - N/A   Overcast
8:18 PM 39.2°F 37.4°F 93% 30.44 in 3.0 miles ENE 4.6 mph - N/A   Overcast
8:27 PM 39.2°F 37.4°F 93% 30.44 in 2.0 miles ENE 4.6 mph - N/A   Overcast
8:43 PM 39.2°F 37.4°F 93% 30.43 in 1.2 miles East 5.8 mph - N/A   Overcast
8:53 PM 39.9°F 39.0°F 97% 30.42 in 1.0 miles East 3.5 mph - N/A   Overcast
9:48 PM 39.2°F 37.4°F 93% 30.43 in 0.8 miles North 4.6 mph - N/A   Mist
9:53 PM 39.9°F 37.9°F 93% 30.42 in 0.5 miles North 4.6 mph - N/A Fog Fog
10:53 PM 39.0°F 37.9°F 96% 30.41 in 0.8 miles NNE 4.6 mph - N/A   Mist
11:09 PM 39.2°F 37.4°F 93% 30.43 in 1.0 miles NE 4.6 mph - N/A   Overcast
11:44 PM 39.2°F 37.4°F 93% 30.42 in 0.8 miles NE 3.5 mph - N/A   Overcast
11:53 PM 39.0°F 39.0°F 100% 30.40 in 0.8 miles NE 3.5 mph - N/A   Mist
Astronomy
Sunrise:07:03 AM (EST) Moon Rise:07:21 PM (EST)12/1
Sunset:04:33 PM (EST) Moon Set:09:14 AM (EST)12/1
Moon Phase
Dec. 01 Dec. 06 Dec. 13 Dec. 20 Dec. 28

Copyright © 2014 The Weather Underground, Inc.